Location: Ethel Rock
(53.4667°N, 4.5667°W)
Time: 04:32:26
(UTC+00:00)

Meteor 1-31 Rocket - Pass Details

Date: 24 October 2020
Orbit: 521 x 546 km, 97.6° (Epoch: 25 November)

Event Time Altitude Azimuth Distance (km) Brightness Sun altitude
Rises 04:52:02 0° 18° (NNE) 2,726 6.7 -20.0°
Reaches altitude 10° 04:54:15 10° 25° (NNE) 1,829 5.9 -19.7°
Maximum altitude 04:58:03 44° 99° (E) 769 4.0 -19.1°
Drops below altitude 10° 05:01:49 10° 172° (S) 1,816 5.5 -18.6°
Sets 05:04:00 0° 179° (S) 2,703 6.3 -18.2°
